Flag for Germany Weather past 2 weeks in Cloppenburg, Lower Saxony, Germany

Now
50 °F

Cool.


Feels Like: 50 °F
Forecast: 49 / 72 °F
Wind: No wind

Location: Meppen-Mil

Current Time: Aug 28, 2014 at 1:59:50 AM

Latest Report: Aug 28, 2014 at 1:20 AM


Visibility: 0 mi

Pressure: 30.04 "Hg

Humidity: 94%

Dew point: 48 °F

Location of CloppenburgLocation

Historic Weather in Cloppenburg — Graph

°F

Cloppenburg temperature yesterday

Maximum temperature yesterday: 72 °F (at 2:20 PM)
Minimum temperature yesterday: 43 °F (at 6:20 AM)
Average temperature yesterday: 58 °F

Past Weeks' High & Low Weather Summary

 TemperatureHumidityPressure
High72 °F (Aug 27, 2:20 PM)100% (Aug 16, 12:20 AM)30.04 "Hg (Aug 16, 12:20 AM)
Low43 °F (Aug 27, 6:20 AM)40% (Aug 13, 3:20 PM)29.53 "Hg (Aug 18, 8:20 AM)
Average57 °F78%29.85 "Hg
* Reported Aug 13 12:20 AM — Aug 28 12:20 AM, Cloppenburg, Weather by CustomWeather, © 2014

Note: Actual official high and low records may vary slightly from our data, if they occured in-between our weather recording intervals... More about our weather records

Advertising

Cloppenburg weather history for previous 24 hours

 ConditionsComfort  
Time TempWeatherWind HumidityBarometerVisibility
12:20 AM
Aug 28
52 °FCool.No wind94%30.04 "Hg0 mi
11:20 PM
Aug 27
54 °FCool.1 mph94%30.04 "Hg3 mi
10:20 PM55 °FCool.No wind88%30.04 "Hg4 mi
9:20 PM59 °FCool.No wind77%30.04 "Hg4 mi
8:20 PM61 °FCool.No wind72%30.01 "Hg4 mi
7:20 PM68 °FMild.2 mph53%30.01 "Hg5 mi
6:20 PM70 °FMild.2 mph43%30.01 "Hg5 mi
5:20 PM72 °FMild.2 mph44%30.01 "Hg4 mi
4:20 PM66 °FScattered clouds.2 mph60%30.01 "HgN/A
3:20 PM70 °FScattered clouds.1 mph46%30.01 "HgN/A
2:20 PM72 °FScattered clouds.2 mph47%30.01 "HgN/A
1:20 PM68 °FScattered clouds.2 mph49%30.04 "HgN/A
12:20 PM66 °FPassing clouds.3 mph56%30.04 "HgN/A
11:20 AM64 °FPassing clouds.3 mph60%30.01 "HgN/A
10:20 AM64 °FPassing clouds.3 mph73%30.01 "HgN/A
9:20 AM61 °FPassing clouds.2 mph77%30.01 "HgN/A
8:52 AM55 °FPassing clouds.2 mph94%29.98 "HgN/A
8:20 AM52 °FPassing clouds.No wind94%29.98 "Hg4 mi
7:20 AM45 °FLight fog.No wind93%29.95 "Hg1 mi
6:20 AM43 °FLight fog.No wind93%29.95 "Hg3 mi
5:20 AM45 °FQuite cool.No wind93%29.92 "Hg0 mi
4:20 AM45 °FQuite cool.No wind93%29.92 "Hg0 mi
3:20 AM45 °FQuite cool.No wind93%29.92 "Hg1 mi
2:20 AM46 °FCool.1 mph93%29.89 "Hg5 mi
1:20 AM48 °FCool.2 mph87%29.89 "Hg5 mi
Weather by CustomWeather, © 2014

See weather overviewHow to use our weather pages